Regional Weather Roundup
Issued by NWS Charleston, SC

Current Version | Previous Version | Text Only | Print | Product List | Glossary Off
Versions: 1 2 3 4 5 6 7 8 9 10 11 12 13 14 15 16 17 18 19 20 21 22 23 24 25 26 27 28 29 30 31 32 33 34 35 36 37 38 39 40 41 42 43 44 45 46 47 48 49 50

000
ASUS42 KCHS 291627
RWRCHS

REGIONAL WEATHER ROUNDUP
NATIONAL WEATHER SERVICE CHARLESTON SC
1200 PM EDT WED JUL 29 2015

NOTE: "FAIR" INDICATES FEW OR NO CLOUDS BELOW 12,000 FEET WITH NO
SIGNIFICANT WEATHER AND/OR OBSTRUCTIONS TO VISIBILITY.

NOT ALL STATIONS ARE QUALITY CONTROLLED BY THE NATIONAL
WEATHER SERVICE. USE DATA WITH CAUTION...ESPECIALLY
DEWPOINT OBSERVATIONS.

SCZ027-030-031-034>040-042>050-291700-
...SOUTHEAST SOUTH CAROLINA...

CITY           SKY/WX    TMP DP  RH WIND       PRES   REMARKS
N CHARLESTON   MOSUNNY   87  71  58 CALM      29.99F HX  93
WATERFRONT PRK   N/A     86  74  67 N6        29.98R HX  94
MOUNT PLEASANT LGT RAIN  88  75  66 NE5       29.99F HX  97
JOHNS ISLAND   FAIR      88  73  62 VRB5      29.99F HX  96
PINOPOLIS      NOT AVBL
MONCKS CORNER  FAIR      90  72  55 CALM      30.00F HX  96
SUMMERVILLE    FAIR      90  72  55 CALM      30.01S HX  96
BEAUFORT MCAS  PTSUNNY   87  72  60 E5        30.00S HX  93
BEAUFORT ARPT  FAIR      88  73  62 NE5       29.99S HX  96
HILTON HEAD IS MOSUNNY   86  75  70 NW5       30.01S HX  95
WALTERBORO     SUNNY     91  64  40 N5        30.00F HX  93
ALLENDALE      FAIR      90  72  55 CALM      29.99F HX  96

...SOUTHERN MIDLANDS AND PEE DEE...

CITY           SKY/WX    TMP DP  RH WIND       PRES   REMARKS
GEORGETOWN     NOT AVBL
KINGSTREE      NOT AVBL
ORANGEBURG     MOSUNNY   90  69  50 CALM      30.00F HX  94
BARNWELL       FAIR      91  70  49 CALM      30.01S HX  97
AIKEN          NOT AVBL
MANNING        FAIR      90  64  43 CALM      30.00F HX  91
COLUMBIA       PTSUNNY   90  69  50 VRB3      30.00F HX  94
SUMTER         MOSUNNY   89  66  46 VRB3      29.99F HX  92
FLORENCE       SUNNY     90  67  46 N6        30.01F HX  93
MYRTLE BEACH   MOSUNNY   88  73  62 E12       30.02S HX  96
N MYRTLE BEACH SUNNY     86  75  69 S8        30.00S HX  95

$$

GAZ063-065-086>088-099>101-113>116-118-119-134>141-150-291700-
...SOUTHEAST GEORGIA...

CITY           SKY/WX    TMP DP  RH WIND       PRES   REMARKS
SAVANNAH ARPT  PTSUNNY   90  68  48 NE5       29.99F HX  94
HUNTER AAF     SUNNY     89  74  62 NE6       29.97F HX  97
FORT STEWART   SUNNY     89  73  59 W1        29.97F HX  96
STATESBORO     MOSUNNY   90  73  57 CALM      30.00F HX  97
SYLVANIA       MOSUNNY   91  76  60 CALM      30.01F HX 102
CLAXTON        FAIR      90  75  62 E5        30.00F HX 100

...CSRA...CENTRAL AND FAR SOUTHEAST GEORGIA...

CITY           SKY/WX    TMP DP  RH WIND       PRES   REMARKS
THOMSON        MOSUNNY   91  77  64 SE6       30.05S HX 104
AUGUSTA-BUSH   SUNNY     90  72  55 E6        29.99F HX  97
AUGUSTA-DANIEL SUNNY     90  73  57 SE9       30.01F HX  98
SWAINSBORO     FAIR      88  79  74 SE3       30.02F HX 102
VIDALIA        PTSUNNY   82  75  78 CALM      30.02S
EASTMAN        FAIR      89  76  67 CALM      30.02F HX 100
HAZLEHURST     LGT RAIN  83  76  78 CALM      30.01S HX  91
ALMA           LGT RAIN  88  73  61 CALM      30.00S HX  95
WAYCROSS       MOSUNNY   93  77  59 E3        29.99F HX 107
JESUP          FAIR      93  77  59 E6        29.99F HX 107
BAXLEY         CLOUDY    90  73  58 N6        30.00S HX  98
BRUNSWICK      SUNNY     88  73  62 N7        29.98F HX  96
SAINT SIMONS   MOSUNNY   88  74  63 NE9       29.98F HX  96

$$

SCZ027-028-034-036>038-045-046-048>050-GAZ119-141-291700-
...LAKE AND SUPPLEMENTAL COASTAL OBSERVATIONS...

STATION/POSITION TIME  TEMP    WIND        PRES    WAVE   SWELL
                       AIR SEA DIR/SP/G            HT/PER HT/PER/DIR
                 (UTC) (F)     (DEG/KT/KT) (MB)    (FT/S) (FT/S/D)
UPR LAKE MARION  NOT AVBL
WINYAH BAY       1545   83      70/  8     1015.0S
LAKE MURRAY      1500   84      CALM  /  2 1015.9S
ACE BASIN NERRS  1500   90      30/  2     1016.0S
FORT PULASKI     1600   83 86   70/  8/ 10 1016.2F
SAPELO ISLAND    1600   89     360/  7     1015.0F

$$

ANZ835-935-AMZ111-154-330-350-352-354-370-450-454-472-291700-
...C-MAN AND BUOY OBSERVATIONS...

STATION/POSITION TIME  TEMP    WIND        PRES    WAVE   SWELL
                       AIR SEA DIR/SP/G            HT/PER HT/PER/DIR
                 (UTC) (F)     (DEG/KT/KT) (MB)    (FT/S) (FT/S/D)
BUOY 41004       1550   83 84   30/ 12/ 14 1014.9F   3/ 7   2/ 7
BUOY 41008       1550   82 83   20/ 10/ 10 1015.7S   2/ 6   2/120/ 6
FOLLY BEACH CMAN 1600   85      70/  8/ 10 1016.0S
CAPERS NEARSHORE 1508   82      60/  8/ 12 1016.1R
FRIPP NEARSHORE  1500   83      40/  8/ 10 1015.7R


STATION/POSITION TIME  TEMP    WIND        PRES    WAVE   SWELL
                       AIR SEA DIR/SP/G            HT/PER HT/PER/DIR
                 (UTC) (F)     (DEG/KT/KT) (MB)    (FT/S) (FT/S/D)
5E ST. MARYS GA  1521      83                N/A     2/12
FRYING PAN BUOY  1550   84 84   50/ 12/ 14 1015.5S   4/ 6   3/150/ 6
BUOY 41025       NOT AVBL
CAPE LOOKOUT NC  1600   82      70/ 12/ 14 1015.9F
BUOY 41002       1550   83 81  230/ 16/ 17 1014.7S   5/ 7   2/ 90/10
BUOY 41010       1520   79 84  260/ 17/ 23 1014.8R
ST AUGUSTINE FL  1600   81 81   20/ 11/ 11 1015.8F


$$



USA.gov is the U.S. government's official web portal to all federal, state and local government web resources and services.